DW3319 Weather Reports


Display with metric or nautical units.
time (UTC)temp
F
wind
direction
speed
MPH
gust
MPH
rain 1hr
in
rain 24hr
in
rain mn
in
humidity
%
barometer
mb
20220122170257 40 59 4.0 10.0 0.00 0.00 0.00 48 1031.8
20220122165807 39 11 5.0 10.0 0.00 0.00 0.00 51 1031.8
20220122165256 39 80 4.0 12.0 0.00 0.00 0.00 54 1032.0
20220122164806 38 19 5.0 12.0 0.00 0.00 0.00 54 1032.0
20220122164253 38 338 5.0 8.0 0.00 0.00 0.00 55 1032.0
20220122163804 38 19 4.0 9.0 0.00 0.00 0.00 57 1032.1
20220122163253 38 9 3.0 10.0 0.00 0.00 0.00 59 1032.2
20220122162803 37 93 4.0 10.0 0.00 0.00 0.00 59 1032.3
20220122162257 37 19 6.0 8.0 0.00 0.00 0.00 58 1032.3
20220122161808 36 38 4.0 10.0 0.00 0.00 0.00 62 1032.3
20220122161258 36 319 3.0 10.0 0.00 0.00 0.00 61 1032.4
20220122160809 36 316 5.0 10.0 0.00 0.00 0.00 62 1032.3
20220122160259 36 315 5.0 10.0 0.00 0.00 0.00 62 1032.3
20220122155808 35 23 3.0 8.0 0.00 0.00 0.00 64 1032.3
20220122155258 35 83 3.0 8.0 0.00 0.00 0.00 64 1032.1
20220122154808 35 40 5.0 8.0 0.00 0.00 0.00 64 1032.2
20220122154258 34 51 4.0 8.0 0.00 0.00 0.00 64 1032.1
20220122153811 34 40 4.0 9.0 0.00 0.00 0.00 67 1032.2
20220122153301 34 77 5.0 11.0 0.00 0.00 0.00 67 1032.2
20220122152812 33 338 3.0 11.0 0.00 0.00 0.00 69 1032.2
20220122152305 33 59 5.0 10.0 0.00 0.00 0.00 69 1032.1
20220122151811 33 319 4.0 9.0 0.00 0.00 0.00 70 1032.1
20220122151301 32 336 4.0 9.0 0.00 0.00 0.00 70 1032.1
20220122150811 32 36 5.0 9.0 0.00 0.00 0.00 71 1032.1
20220122150301 32 9 3.0 7.0 0.00 0.00 0.00 72 1032.0
20220122145756 31 11 3.0 8.0 0.00 0.00 0.00 74 1032.0
20220122145307 31 348 4.0 9.0 0.00 0.00 0.00 73 1031.9
20220122144756 30 57 5.0 9.0 0.00 0.00 0.00 74 1031.8
20220122144307 30 319 3.0 9.0 0.00 0.00 0.00 76 1031.9
20220122143757 30 39 4.0 9.0 0.00 0.00 0.00 77 1031.8
20220122143308 29 33 3.0 9.0 0.00 0.00 0.00 78 1031.8
20220122142758 29 28 4.0 9.0 0.00 0.00 0.00 79 1031.6
20220122142307 28 346 4.0 9.0 0.00 0.00 0.00 81 1031.5
20220122141756 27 31 4.0 7.0 0.00 0.00 0.00 83 1031.5
20220122141309 27 117 3.0 7.0 0.00 0.00 0.00 84 1031.4
20220122140758 26 93 3.0 7.0 0.00 0.00 0.00 84 1031.5
20220122140308 26 57 2.0 6.0 0.00 0.00 0.00 85 1031.4
20220122135758 26 93 3.0 6.0 0.00 0.00 0.00 87 1031.4
20220122135308 25 47 2.0 5.0 0.00 0.00 0.00 88 1031.4
20220122134757 25 28 1.0 5.0 0.00 0.00 0.00 90 1031.5
20220122134306 24 32 2.0 4.0 0.00 0.00 0.00 90 1031.5
20220122133756 24 162 2.0 4.0 0.00 0.00 0.00 91 1031.4
20220122133306 24 22 1.0 2.0 0.00 0.00 0.00 92 1031.4
20220122132800 24 325 1.0 2.0 0.00 0.00 0.00 91 1031.3
20220122132310 24 137 0.0 1.0 0.00 0.00 0.00 90 1031.3
20220122131801 24 67 0.0 1.0 0.00 0.00 0.00 90 1031.2
20220122131311 24 221 0.0 1.0 0.00 0.00 0.00 90 1031.1
20220122130801 24 93 0.0 2.0 0.00 0.00 0.00 89 1031.1
20220122130312 24 325 1.0 2.0 0.00 0.00 0.00 90 1031.2
20220122125802 24 38 1.0 4.0 0.00 0.00 0.00 90 1031.1
20220122125311 24 319 1.0 3.0 0.00 0.00 0.00 90 1031.0
20220122124806 24 334 1.0 3.0 0.00 0.00 0.00 90 1031.0
20220122124256 24 34 1.0 3.0 0.00 0.00 0.00 90 1030.8
20220122123806 24 51 0.0 2.0 0.00 0.00 0.00 90 1030.8
20220122123256 25 9 0.0 1.0 0.00 0.00 0.00 90 1030.8
20220122122808 25 93 0.0 2.0 0.00 0.00 0.00 90 1030.8
20220122122257 25 334 0.0 2.0 0.00 0.00 0.00 89 1030.7
20220122121808 25 51 1.0 2.0 0.00 0.00 0.00 88 1030.7
20220122121257 25 334 0.0 2.0 0.00 0.00 0.00 88 1030.6
20220122120752 25 334 0.0 2.0 0.00 0.00 0.00 87 1030.5
20220122120302 25 51 1.0 2.0 0.00 0.00 0.00 87 1030.4
20220122115810 25 9 1.0 2.0 0.00 0.00 0.00 87 1030.3
20220122115305 26 341 1.0 3.0 0.00 0.00 0.00 86 1030.3
20220122114752 26 9 1.0 2.0 0.00 0.00 0.00 85 1030.2
20220122114303 26 19 1.0 4.0 0.00 0.00 0.00 85 1030.1
20220122113752 26 9 1.0 4.0 0.00 0.00 0.00 85 1030.1
20220122113302 26 330 1.0 3.0 0.00 0.00 0.00 85 1030.0
20220122112753 26 338 2.0 3.0 0.00 0.00 0.00 84 1029.9
20220122112307 26 41 1.0 3.0 0.00 0.00 0.00 84 1029.8
20220122111756 26 309 2.0 4.0 0.00 0.00 0.00 84 1029.8
20220122111306 26 338 1.0 4.0 0.00 0.00 0.00 83 1029.7
20220122110755 26 61 1.0 4.0 0.00 0.00 0.00 83 1029.5
20220122110305 26 314 2.0 4.0 0.00 0.00 0.00 83 1029.5
20220122105752 27 309 1.0 5.0 0.00 0.00 0.00 83 1029.5
20220122105305 27 61 3.0 5.0 0.00 0.00 0.00 83 1029.4
20220122104753 27 19 1.0 4.0 0.00 0.00 0.00 82 1029.4
20220122104303 27 13 2.0 4.0 0.00 0.00 0.00 82 1029.4
20220122103756 27 9 2.0 5.0 0.00 0.00 0.00 82 1029.3
20220122103305 27 22 2.0 5.0 0.00 0.00 0.00 81 1029.2
20220122102756 27 54 2.0 5.0 0.00 0.00 0.00 82 1029.3
20220122102306 27 9 1.0 3.0 0.00 0.00 0.00 82 1029.1
20220122101758 27 44 1.0 4.0 0.00 0.00 0.00 82 1029.0
20220122101308 27 346 1.0 4.0 0.00 0.00 0.00 82 1028.8
20220122100757 27 18 2.0 5.0 0.00 0.00 0.00 81 1028.7
20220122100306 27 39 2.0 5.0 0.00 0.00 0.00 81 1028.6
20220122095800 27 47 1.0 4.0 0.00 0.00 0.00 81 1028.8
20220122095308 27 64 1.0 3.0 0.00 0.00 0.00 81 1028.8
20220122094758 27 309 1.0 3.0 0.00 0.00 0.00 80 1028.9
20220122094307 27 41 1.0 3.0 0.00 0.00 0.00 80 1029.1
20220122093758 27 325 2.0 4.0 0.00 0.00 0.00 79 1029.1
20220122093309 27 47 2.0 5.0 0.00 0.00 0.00 79 1029.0
20220122092801 28 51 1.0 4.0 0.00 0.00 0.00 79 1029.0
20220122092311 28 51 2.0 5.0 0.00 0.00 0.00 78 1029.0
20220122091801 28 36 3.0 5.0 0.00 0.00 0.00 78 1028.9
20220122091256 28 48 2.0 4.0 0.00 0.00 0.00 78 1028.9
20220122090806 28 82 2.0 5.0 0.00 0.00 0.00 77 1028.7
20220122090256 28 9 2.0 7.0 0.00 0.00 0.00 77 1028.8
20220122085808 28 110 3.0 6.0 0.00 0.00 0.00 77 1028.7
20220122085257 28 28 2.0 7.0 0.00 0.00 0.00 77 1028.6
20220122084806 28 44 2.0 7.0 0.00 0.00 0.00 76 1028.7
20220122084256 28 34 2.0 6.0 0.00 0.00 0.00 77 1028.6
20220122083803 28 20 3.0 6.0 0.00 0.00 0.00 76 1028.5
20220122083257 28 41 2.0 5.0 0.00 0.00 0.00 76 1028.6
20220122082808 28 56 2.0 5.0 0.00 0.00 0.00 76 1028.7
20220122082258 28 22 2.0 5.0 0.00 0.00 0.00 76 1028.7
20220122081809 28 67 2.0 5.0 0.00 0.00 0.00 75 1028.6
20220122081259 28 321 2.0 5.0 0.00 0.00 0.00 75 1028.6
20220122080810 29 22 2.0 6.0 0.00 0.00 0.00 74 1028.5
20220122080259 29 93 2.0 4.0 0.00 0.00 0.00 74 1028.5
20220122075809 29 36 2.0 5.0 0.00 0.00 0.00 73 1028.4
20220122075258 29 41 2.0 5.0 0.00 0.00 0.00 73 1028.5
20220122074811 29 70 2.0 8.0 0.00 0.00 0.00 73 1028.3
20220122074301 29 93 3.0 8.0 0.00 0.00 0.00 72 1028.4
20220122073811 29 9 2.0 6.0 0.00 0.00 0.00 72 1028.5
20220122073301 29 342 2.0 5.0 0.00 0.00 0.00 72 1028.5
20220122072752 29 34 2.0 5.0 0.00 0.00 0.00 72 1028.6
20220122072301 29 43 2.0 7.0 0.00 0.00 0.00 73 1028.6
20220122071752 28 59 3.0 7.0 0.00 0.00 0.00 73 1028.6
20220122071302 28 9 2.0 6.0 0.00 0.00 0.00 74 1028.4
20220122070756 28 51 2.0 6.0 0.00 0.00 0.00 74 1028.4
20220122070306 28 80 1.0 3.0 0.00 0.00 0.00 74 1028.4
20220122065757 28 9 1.0 3.0 0.00 0.00 0.00 74 1028.4
20220122065306 28 321 1.0 3.0 0.00 0.00 0.00 74 1028.5
20220122064755 29 9 1.0 3.0 0.00 0.00 0.00 75 1028.4
20220122064304 29 51 1.0 2.0 0.00 0.00 0.00 75 1028.4
20220122063753 29 9 1.0 2.0 0.00 0.00 0.00 74 1028.5
20220122063303 29 341 1.0 2.0 0.00 0.00 0.00 72 1028.5
20220122062752 29 93 1.0 2.0 0.00 0.00 0.00 72 1028.6
20220122062307 30 321 1.0 3.0 0.00 0.00 0.00 69 1028.7
20220122061758 30 28 2.0 3.0 0.00 0.00 0.00 68 1028.8
20220122061309 30 93 1.0 3.0 0.00 0.00 0.00 68 1028.8
20220122060756 30 341 1.0 3.0 0.00 0.00 0.00 67 1028.7
20220122060305 30 80 1.0 4.0 0.00 0.00 0.00 67 1028.6
20220122055756 30 9 2.0 4.0 0.00 0.00 0.00 67 1028.7
20220122055307 30 72 2.0 4.0 0.00 0.00 0.00 67 1028.8
20220122054757 31 51 1.0 3.0 0.00 0.00 0.00 65 1028.9
20220122054303 31 38 1.0 4.0 0.00 0.00 0.00 66 1029.0
20220122053756 31 51 1.0 5.0 0.00 0.00 0.00 64 1029.0
20220122053307 31 9 1.0 5.0 0.00 0.00 0.00 63 1029.2
20220122052757 31 57 2.0 5.0 0.00 0.00 0.00 62 1029.2
20220122052306 32 26 2.0 4.0 0.00 0.00 0.00 62 1029.3
20220122051756 32 51 2.0 5.0 0.00 0.00 0.00 61 1029.4
20220122051305 32 51 1.0 5.0 0.00 0.00 0.00 61 1029.3
20220122050755 32 64 2.0 5.0 0.00 0.00 0.00 60 1029.2
20220122050304 32 71 2.0 7.0 0.00 0.00 0.00 60 1029.1
20220122045759 32 24 4.0 9.0 0.00 0.00 0.00 59 1028.9
20220122045308 32 346 4.0 9.0 0.00 0.00 0.00 59 1028.8
20220122044756 32 51 3.0 6.0 0.00 0.00 0.00 59 1028.8
20220122044305 33 341 2.0 6.0 0.00 0.00 0.00 60 1028.9
20220122043754 33 344 2.0 6.0 0.00 0.00 0.00 58 1028.9
20220122043303 33 26 2.0 6.0 0.00 0.00 0.00 58 1028.9
20220122042753 33 26 1.0 6.0 0.00 0.00 0.00 59 1028.9
20220122042306 33 83 2.0 7.0 0.00 0.00 0.00 57 1028.8
20220122041754 33 45 2.0 7.0 0.00 0.00 0.00 57 1028.7
20220122041309 34 30 2.0 9.0 0.00 0.00 0.00 57 1028.7
20220122040800 34 323 3.0 9.0 0.00 0.00 0.00 58 1028.6
20220122040305 34 11 3.0 7.0 0.00 0.00 0.00 56 1028.7
20220122035756 34 109 3.0 9.0 0.00 0.00 0.00 57 1028.7
20220122035307 34 86 3.0 7.0 0.00 0.00 0.00 57 1028.7
20220122034757 34 34 2.0 4.0 0.00 0.00 0.00 59 1028.7
20220122034306 34 9 2.0 6.0 0.00 0.00 0.00 58 1028.8
20220122033816 34 34 2.0 7.0 0.00 0.00 0.00 56 1028.8
20220122033305 34 22 3.0 7.0 0.00 0.00 0.00 57 1028.8
20220122032758 34 49 3.0 8.0 0.00 0.00 0.00 58 1028.7
20220122032306 34 338 3.0 6.0 0.00 0.00 0.00 58 1028.7
20220122031758 35 41 2.0 5.0 0.00 0.00 0.00 60 1028.6
20220122031307 35 76 2.0 6.0 0.00 0.00 0.00 60 1028.3
20220122030757 35 104 3.0 6.0 0.00 0.00 0.00 62 1028.2
20220122030308 35 32 3.0 6.0 0.00 0.00 0.00 63 1028.2
20220122025757 34 13 3.0 7.0 0.00 0.00 0.00 63 1028.1
20220122025308 34 9 2.0 8.0 0.00 0.00 0.00 63 1028.2
20220122024758 34 38 4.0 8.0 0.00 0.00 0.00 65 1028.1
20220122024252 34 19 2.0 7.0 0.00 0.00 0.00 68 1028.0
20220122023802 34 16 2.0 4.0 0.00 0.00 0.00 71 1028.1
20220122023251 34 13 1.0 3.0 0.00 0.00 0.00 70 1028.1
20220122022801 34 67 1.0 2.0 0.00 0.00 0.00 69 1028.2
20220122022311 35 334 1.0 2.0 0.00 0.00 0.00 67 1028.1
20220122021802 35 334 0.0 2.0 0.00 0.00 0.00 69 1028.0
20220122021311 35 34 1.0 2.0 0.00 0.00 0.00 65 1028.0
20220122020801 35 67 1.0 6.0 0.00 0.00 0.00 63 1027.9
20220122020254 35 34 2.0 6.0 0.00 0.00 0.00 63 1027.8
20220122015805 36 334 1.0 3.0 0.00 0.00 0.00 63 1027.9
20220122015255 36 44 2.0 4.0 0.00 0.00 0.00 63 1027.9
20220122014806 36 51 2.0 5.0 0.00 0.00 0.00 62 1027.9
20220122014255 36 316 2.0 5.0 0.00 0.00 0.00 63 1027.8
20220122013805 36 51 2.0 5.0 0.00 0.00 0.00 61 1027.8
20220122013255 36 26 1.0 5.0 0.00 0.00 0.00 64 1027.7
20220122012806 36 72 2.0 5.0 0.00 0.00 0.00 64 1027.6
20220122012256 36 9 1.0 3.0 0.00 0.00 0.00 63 1027.6
20220122011810 36 51 1.0 4.0 0.00 0.00 0.00 62 1027.6
20220122011259 36 26 2.0 4.0 0.00 0.00 0.00 64 1027.4
20220122010811 36 9 2.0 3.0 0.00 0.00 0.00 65 1027.4
20220122010302 36 67 1.0 3.0 0.00 0.00 0.00 66 1027.3
20220122005812 36 51 1.0 3.0 0.00 0.00 0.00 66 1027.2
20220122005259 36 341 1.0 2.0 0.00 0.00 0.00 66 1027.1
20220122004810 36 67 1.0 2.0 0.00 0.00 0.00 70 1027.0
20220122004300 37 9 1.0 2.0 0.00 0.00 0.00 73 1026.9
20220122003754 37 9 1.0 2.0 0.00 0.00 0.00 66 1027.0
20220122003303 37 137 0.0 2.0 0.00 0.00 0.00 65 1026.9
20220122002753 37 325 1.0 3.0 0.00 0.00 0.00 67 1026.7
20220122002305 38 9 2.0 3.0 0.00 0.00 0.00 60 1026.7
20220122001753 38 51 1.0 3.0 0.00 0.00 0.00 58 1026.7
20220122001304 38 338 2.0 3.0 0.00 0.00 0.00 61 1026.6
20220122000754 38 22 1.0 3.0 0.00 0.00 0.00 59 1026.6
20220122000304 39 30 1.0 4.0 0.00 0.00 0.00 58 1026.5
20220121235753 39 24 2.0 4.0 0.00 0.00 0.00 57 1026.3
20220121235307 39 41 1.0 4.0 0.00 0.00 0.00 56 1026.3
20220121234756 40 51 2.0 4.0 0.00 0.00 0.00 54 1026.2
20220121234306 40 26 1.0 6.0 0.00 0.00 0.00 54 1026.2
20220121233755 40 26 2.0 6.0 0.00 0.00 0.00 52 1026.2
20220121233305 41 9 3.0 7.0 0.00 0.00 0.00 51 1026.2
20220121232756 41 34 3.0 7.0 0.00 0.00 0.00 50 1026.1
20220121232306 41 9 3.0 7.0 0.00 0.00 0.00 50 1026.0
20220121231756 41 30 2.0 7.0 0.00 0.00 0.00 49 1026.2
20220121231307 42 67 3.0 7.0 0.00 0.00 0.00 48 1026.1
20220121230802 42 21 2.0 7.0 0.00 0.00 0.00 48 1026.1
20220121230253 42 338 3.0 8.0 0.00 0.00 0.00 46 1026.2
20220121225802 43 23 3.0 7.0 0.00 0.00 0.00 46 1026.2
20220121225251 43 40 4.0 10.0 0.00 0.00 0.00 47 1026.1
20220121224801 43 102 4.0 10.0 0.00 0.00 0.00 45 1026.0
20220121224251 43 24 5.0 10.0 0.00 0.00 0.00 45 1026.1
20220121223802 43 31 3.0 9.0 0.00 0.00 0.00 47 1026.0
20220121223252 43 324 5.0 11.0 0.00 0.00 0.00 44 1026.1
20220121222807 43 338 5.0 11.0 0.00 0.00 0.00 45 1026.1
20220121222256 43 39 4.0 9.0 0.00 0.00 0.00 47 1026.1
20220121221805 43 324 5.0 9.0 0.00 0.00 0.00 47 1026.0
20220121221256 42 13 3.0 9.0 0.00 0.00 0.00 47 1025.9
20220121220805 42 33 3.0 11.0 0.00 0.00 0.00 48 1025.8
20220121220255 42 67 5.0 13.0 0.00 0.00 0.00 47 1026.0
20220121215805 42 9 6.0 13.0 0.00 0.00 0.00 46 1026.1
20220121215257 42 18 4.0 7.0 0.00 0.00 0.00 48 1026.0
20220121214806 42 334 4.0 7.0 0.00 0.00 0.00 50 1025.9
20220121214302 42 44 3.0 9.0 0.00 0.00 0.00 50 1025.9
20220121213751 42 49 4.0 11.0 0.00 0.00 0.00 49 1025.8
20220121213301 42 34 5.0 11.0 0.00 0.00 0.00 50 1025.8
20220121212810 42 346 6.0 12.0 0.00 0.00 0.00 47 1025.9
20220121212300 41 40 4.0 11.0 0.00 0.00 0.00 49 1025.9
20220121211809 41 70 5.0 12.0 0.00 0.00 0.00 51 1025.9
20220121211300 40 48 5.0 12.0 0.00 0.00 0.00 49 1026.0
20220121210809 40 342 5.0 13.0 0.00 0.00 0.00 50 1026.0
20220121210305 39 45 4.0 11.0 0.00 0.00 0.00 52 1026.0
20220121205753 39 46 6.0 11.0 0.00 0.00 0.00 52 1026.2
20220121205305 39 32 5.0 11.0 0.00 0.00 0.00 51 1026.2
20220121204810 39 22 6.0 11.0 0.00 0.00 0.00 52 1026.1
20220121204300 39 9 5.0 13.0 0.00 0.00 0.00 51 1026.1
20220121203809 39 40 7.0 13.0 0.00 0.00 0.00 51 1026.2
20220121203257 40 53 6.0 13.0 0.00 0.00 0.00 51 1026.2
20220121202807 40 9 4.0 14.0 0.00 0.00 0.00 52 1026.1
20220121202257 40 19 7.0 14.0 0.00 0.00 0.00 51 1026.0
20220121201811 39 346 6.0 11.0 0.00 0.00 0.00 54 1026.0
20220121201300 39 312 6.0 12.0 0.00 0.00 0.00 52 1026.1
20220121200751 39 32 7.0 12.0 0.00 0.00 0.00 51 1026.1
20220121200301 39 346 6.0 14.0 0.00 0.00 0.00 52 1026.2
20220121195751 39 15 6.0 14.0 0.00 0.00 0.00 53 1026.3
20220121195300 38 316 7.0 12.0 0.00 0.00 0.00 51 1026.2
20220121194810 38 9 5.0 11.0 0.00 0.00 0.00 55 1026.2
20220121194258 38 9 6.0 11.0 0.00 0.00 0.00 53 1026.4
20220121193752 38 346 7.0 11.0 0.00 0.00 0.00 52 1026.5
20220121193302 38 32 6.0 10.0 0.00 0.00 0.00 53 1026.4
20220121192752 38 319 4.0 11.0 0.00 0.00 0.00 55 1026.5
20220121192305 38 106 6.0 10.0 0.00 0.00 0.00 55 1026.7
20220121191751 38 284 6.0 13.0 0.00 0.00 0.00 56 1026.8
20220121191302 37 330 7.0 13.0 0.00 0.00 0.00 57 1026.9
20220121190811 37 23 5.0 10.0 0.00 0.00 0.00 57 1027.0
20220121190302 37 22 4.0 11.0 0.00 0.00 0.00 56 1027.0
20220121185752 37 13 5.0 13.0 0.00 0.00 0.00 57 1027.1
20220121185306 37 24 7.0 13.0 0.00 0.00 0.00 56 1027.2
20220121184757 37 300 5.0 10.0 0.00 0.00 0.00 55 1027.3
20220121184306 37 346 5.0 9.0 0.00 0.00 0.00 57 1027.4
20220121183756 37 47 3.0 10.0 0.00 0.00 0.00 58 1027.5
20220121183306 37 40 5.0 10.0 0.00 0.00 0.00 58 1027.6
20220121182755 37 45 4.0 10.0 0.00 0.00 0.00 59 1027.7
20220121182306 36 51 5.0 10.0 0.00 0.00 0.00 58 1027.7
20220121181754 36 45 5.0 16.0 0.00 0.00 0.00 59 1027.9
20220121181304 36 321 7.0 16.0 0.00 0.00 0.00 57 1028.0
20220121180758 36 26 6.0 13.0 0.00 0.00 0.00 57 1028.1
20220121180307 36 348 7.0 13.0 0.00 0.00 0.00 56 1028.2
20220121175757 36 11 6.0 10.0 0.00 0.00 0.00 57 1028.2
20220121175306 36 45 6.0 13.0 0.00 0.00 0.00 59 1028.2
20220121174756 35 36 6.0 13.0 0.00 0.00 0.00 60 1028.4
20220121174306 35 350 6.0 11.0 0.00 0.00 0.00 58 1028.4
20220121173755 35 27 6.0 12.0 0.00 0.00 0.00 59 1028.4
20220121173305 34 316 6.0 14.0 0.00 0.00 0.00 59 1028.5
20220121172759 34 43 6.0 14.0 0.00 0.00 0.00 59 1028.6
20220121172308 34 339 7.0 12.0 0.00 0.00 0.00 59 1028.6
20220121171758 34 51 5.0 10.0 0.00 0.00 0.00 60 1028.7
20220121171308 34 36 5.0 11.0 0.00 0.00 0.00 62 1028.7
20220121170758 34 25 7.0 11.0 0.00 0.00 0.00 62 1028.7